Terminal Aerodrome Forecast
Issued by NWS Duluth, MN

Home | Current Version | Previous Version | Text Only | Print | Product List | Glossary On
Versions: 1 2 3 4 5 6 7 8 9 10 11 12 13 14 15 16 17 18 19 20 21 22 23
000
FTUS43 KDLH 281455 AAD
TAFINL
TAF AMD
KINL 281455Z 2815/2912 VRB06KT P6SM VCSH OVC005
     FM281600 21011KT 6SM BR VCTS OVC005CB
     FM282200 21008KT P6SM VCSH SCT040 BKN100
     FM290000 23008KT P6SM -TSRA SCT020 OVC040CB PROB30 2900/2904
      3SM TSRA
     FM290500 VRB03KT P6SM SCT040=

USA.gov is the U.S. government's official web portal to all federal, state and local government web resources and services.